RH
53 60 68 64 68 59 78 48 66 53 54 51 52 46 64 59 71 74 48 16 11 8 9 9 4 2 2 2 2 2 2 1 1 1 2 2 4 6 11 14 20 28 57 100
56 71 85 75 78 74 99 70 74 66 52 56 58 45 59 56 64 71 64 21 11 8 8 8 3 2 2 2 2 2 2 1 1 1 2 2 3 4 12 13 17 27 68 100
62 86 100 73 86 64 95 96 99 84 46 50 45 49 53 52 65 73 71 21 10 7 7 7 4 2 2 2 2 2 2 1 1 1 2 2 2 4 9 13 17 26 49 100
79 76 93 78 96 93 72 94 91 85 53 42 41 48 42 47 57 70 64 30 9 6 7 7 4 2 2 2 2 1 1 1 1 1 1 2 2 4 7 12 14 26 69 100
86 80 85 91 87 98 77 84 88 81 52 36 38 43 43 42 66 58 63 46 12 6 6 6 5 2 2 2 2 1 1 1 1 1 1 2 2 4 8 12 14 24 100 100
100 100 100 91 94 85 79 76 75 64 58 31 36 33 41 43 54 69 74 57 18 7 7 6 6 2 2 2 2 1 1 1 1 1 1 2 2 4 7 11 14 70 100 100
100 91 100 82 90 86 92 73 77 76 61 32 34 33 36 50 48 67 78 57 24 8 6 7 6 3 2 2 2 2 1 1 1 1 1 2 2 3 8 12 15 100 100 100
91 87 96 94 86 75 76 83 75 82 69 27 27 34 33 41 38 54 68 77 30 12 6 8 6 3 2 2 2 2 2 1 1 1 2 2 2 4 10 12 15 85 100 100
100 93 81 74 68 90 91 76 77 88 76 28 22 31 32 40 38 51 68 73 30 14 7 7 6 4 3 2 2 2 2 2 1 1 2 2 3 4 10 12 16 89 100 100
88 71 73 81 87 99 98 63 74 85 68 27 21 28 27 35 38 63 66 70 40 15 10 7 6 6 4 3 2 2 2 2 2 2 2 2 2 4 8 15 16 70 100 100
66 76 84 98 99 100 91 58 62 51 37 23 22 21 26 27 33 59 58 75 54 16 10 7 7 7 4 4 2 2 2 2 2 2 2 3 2 4 7 15 19 26 38 51
70 90 67 76 84 84 68 51 44 33 29 24 21 21 26 22 37 45 59 73 76 25 10 8 8 6 5 5 3 3 2 2 2 2 2 3 3 4 6 13 21 23 39 49
59 62 53 60 60 54 41 39 39 32 24 22 21 22 26 23 37 41 54 61 80 47 15 9 8 6 7 5 4 3 3 2 2 2 2 3 3 4 6 15 20 23 29 45
52 40 43 44 40 34 32 41 38 31 28 23 23 23 25 27 28 33 49 55 69 62 14 10 8 9 8 6 7 3 3 3 3 2 2 2 3 3 6 14 17 26 30 45
47 47 41 40 39 37 36 37 36 33 30 23 24 24 25 24 27 26 34 45 57 72 22 11 9 9 7 9 9 5 3 3 3 3 2 2 3 4 5 15 16 24 32 39
50 58 47 46 37 41 38 38 37 34 33 25 24 27 24 27 35 25 32 39 50 70 42 15 10 8 8 11 10 8 4 3 3 2 3 2 3 4 6 12 19 20 30 41
52 55 53 53 47 49 41 36 38 34 33 27 26 28 28 34 41 29 30 35 44 62 35 16 11 9 10 9 12 12 6 5 3 3 2 3 3 4 6 13 19 24 31 41
65 64 63 57 57 55 48 37 35 34 33 31 26 26 32 32 36 33 33 33 39 56 40 12 12 10 10 10 13 14 11 7 5 4 3 4 5 6 8 10 19 26 30 32
37 70 56 53 58 52 40 32 32 33 34 30 30 30 33 36 36 30 35 30 36 45 57 25 13 11 11 12 11 16 17 11 8 6 6 6 7 9 9 11 22 32 32 40
24 31 40 42 46 39 32 33 29 30 31 32 32 34 33 38 32 32 31 26 32 41 47 24 12 10 12 11 13 13 18 17 12 10 9 9 11 14 14 14 28 31 37 65
15 20 30 33 33 28 26 28 28 28 29 30 33 35 33 32 36 37 31 28 30 38 44 26 14 10 10 11 12 13 15 20 17 14 12 12 13 16 17 19 30 42 53 77
12 15 23 26 28 27 24 25 26 25 26 28 33 34 34 33 46 46 31 30 31 36 37 23 15 11 9 11 11 11 12 16 20 19 16 16 16 18 26 26 34 49 58 63
11 12 14 20 24 26 25 25 25 26 28 30 34 32 32 41 44 39 33 26 29 28 26 21 15 13 11 10 11 11 11 13 17 21 24 18 19 19 22 34 41 44 56 60
12 12 14 16 20 23 24 27 28 30 33 36 35 42 49 68 59 44 37 30 28 26 29 24 16 13 12 11 10 11 12 12 13 16 21 28 21 19 19 25 38 42 56 65
12 13 14 15 18 20 24 28 30 34 32 43 68 56 73 64 50 44 31 33 23 23 25 23 18 14 12 11 11 10 11 12 12 13 16 24 26 26 22 20 25 35 45 59
18 19 22 22 22 27 27 30 24 32 56 76 70 100 80 68 57 44 36 34 28 26 24 20 16 16 13 12 11 12 10 11 13 13 13 14 23 25 30 27 24 30 41 54
25 25 24 22 23 24 22 22 43 77 68 72 100 86 71 75 64 44 43 39 35 25 20 20 14 15 13 13 12 10 12 10 11 13 14 14 14 21 26 32 30 30 34 43
Wind_Speed
78 82 90 92 91 96 100 102 103 105 107 105 110 105 112 109 112 110 109 109 95 90 76 69 59 51 40 29 31 28 33 38 54 67 80 97 121 146 167 165 159 156 150 142
72 78 84 90 92 95 98 105 105 105 104 105 108 105 110 108 112 108 111 106 96 90 79 71 61 52 40 27 28 25 28 36 50 62 74 92 111 131 167 169 164 157 148 145
71 82 86 91 93 97 97 102 105 107 106 104 104 106 108 103 111 111 112 105 96 90 78 70 62 54 42 31 25 22 27 34 47 57 71 86 103 125 162 169 164 157 150 144
83 86 89 94 97 97 98 100 101 105 106 104 103 106 107 103 111 112 110 108 98 91 82 72 62 54 45 30 22 18 25 33 43 53 68 82 97 118 149 170 167 161 152 146
93 92 92 96 99 101 103 97 99 103 104 102 103 104 104 103 110 109 113 112 104 92 82 73 65 53 47 31 21 14 21 31 40 50 63 78 96 119 147 165 167 160 150 143
99 101 102 103 104 104 107 99 98 103 104 101 102 99 100 102 107 111 114 114 106 93 85 76 67 53 46 34 21 11 13 27 38 47 59 76 92 113 139 158 164 161 145 141
105 105 104 105 107 107 108 104 101 102 103 101 101 99 98 102 104 106 114 110 102 95 86 75 66 56 48 37 22 12 6 19 32 42 55 71 92 104 142 163 165 156 148 143
108 107 109 107 108 108 106 104 102 102 98 100 97 97 95 99 103 103 114 111 97 95 87 78 68 56 50 38 24 14 3 11 26 39 54 71 91 107 142 162 161 156 150 146
108 108 108 107 107 107 105 102 99 98 98 97 93 93 93 98 100 104 108 109 98 92 87 78 69 56 51 41 27 13 4 8 23 39 54 73 94 112 143 161 162 161 154 149
107 106 105 105 104 102 101 98 97 96 96 91 88 90 93 92 94 105 106 102 95 89 86 79 70 58 51 44 31 15 3 9 23 40 54 72 89 110 133 160 162 162 161 152
110 106 101 101 100 97 97 94 93 92 89 87 84 88 90 92 91 100 102 99 95 87 82 78 70 57 48 46 32 19 4 9 24 41 53 66 85 109 132 158 161 161 155 152
104 101 97 93 91 91 90 92 85 89 83 82 82 85 89 86 90 97 92 92 101 88 81 77 69 57 45 46 35 20 7 8 21 39 53 67 84 106 122 152 162 160 160 156
98 92 89 90 88 86 89 90 83 84 80 83 81 83 86 85 87 88 87 86 96 88 78 72 67 57 46 42 36 22 9 4 18 35 52 65 83 104 122 154 157 158 158 156
96 90 84 85 87 85 84 82 78 76 76 80 81 80 83 84 84 79 74 83 85 89 71 66 63 56 46 39 41 25 10 2 16 33 44 58 77 97 114 147 158 152 156 152
96 93 90 88 92 93 88 82 78 74 79 76 78 80 81 83 84 78 75 80 77 85 77 64 62 53 45 38 39 28 14 3 13 27 39 55 69 88 108 143 153 155 155 150
93 92 92 92 97 94 89 83 81 77 77 77 77 79 80 79 83 80 80 71 72 76 70 63 55 51 42 34 33 30 15 5 9 22 33 51 69 85 108 134 149 156 150 153
95 93 91 94 92 89 90 88 85 81 79 77 77 78 78 79 82 84 80 73 71 67 60 53 51 48 38 29 25 26 16 6 9 19 30 42 61 84 107 128 145 147 146 145
92 91 91 88 85 86 89 86 84 79 78 76 78 78 77 77 82 84 79 73 66 63 59 46 43 44 37 27 18 17 14 5 10 19 30 42 59 76 90 109 136 143 138 136
87 89 88 84 83 87 84 82 79 77 76 76 77 77 76 76 80 80 75 67 56 66 58 51 38 36 33 24 16 9 8 2 11 21 32 42 57 72 82 98 124 137 138 138
84 84 82 81 81 78 76 77 78 79 76 75 76 77 79 77 78 74 68 62 51 49 46 46 36 31 30 21 13 9 4 6 13 23 34 46 55 63 81 94 118 132 137 146
81 75 73 74 73 73 72 74 77 79 77 77 77 76 75 77 74 69 66 59 50 47 38 37 34 28 27 21 14 9 13 14 19 26 34 46 58 67 83 103 124 134 144 141
71 67 67 74 73 73 74 73 74 75 76 73 74 70 70 70 67 63 61 58 49 46 34 33 27 28 25 23 18 15 15 21 24 29 38 45 56 71 89 103 122 136 142 143
65 67 66 67 68 71 71 72 71 68 65 63 63 67 65 61 58 59 56 49 48 37 31 31 26 24 26 25 22 19 20 22 29 32 38 48 58 67 83 107 120 130 138 142
62 60 62 66 67 68 67 66 62 56 57 61 63 59 57 56 58 55 57 48 47 36 26 27 25 25 25 27 26 25 23 27 28 36 40 44 54 65 78 92 113 122 131 141
57 56 54 54 57 57 58 56 56 58 61 52 52 52 51 56 53 54 52 50 46 41 28 25 24 25 26 25 28 29 27 28 33 34 43 48 52 59 72 85 101 120 129 133
52 51 50 51 51 51 52 57 59 53 44 45 44 48 55 54 55 55 50 48 43 41 26 24 22 24 26 26 26 30 32 30 33 38 40 47 55 59 65 77 90 106 122 127
54 54 54 55 56 54 58 50 46 40 46 41 45 53 52 55 55 53 49 49 45 40 25 21 23 23 26 25 27 28 32 35 34 36 43 46 53 60 65 72 80 92 110 124
Wind_Direction
335 337 339 344 342 341 338 342 340 341 341 345 345 350 350 355 357 354 354 348 349 353 350 344 340 339 330 304 286 269 245 219 214 213 207 205 199 198 196 195 192 194 197 199
333 336 334 340 339 340 335 338 340 340 341 343 345 348 349 355 355 355 353 349 349 354 351 347 344 345 335 317 295 273 244 223 213 212 206 203 200 197 196 194 193 192 195 197
328 334 331 337 335 340 337 334 335 338 340 343 346 346 349 353 355 355 354 350 349 354 354 349 345 347 343 325 303 274 245 219 213 208 203 202 201 198 196 195 194 191 195 197
332 335 335 333 334 335 337 333 335 335 338 341 347 345 348 352 353 358 352 349 349 353 356 352 350 348 349 334 313 277 243 216 209 206 202 198 198 195 196 195 194 189 195 197
328 333 334 329 333 331 333 332 332 334 337 341 345 344 348 351 356 355 355 349 349 352 359 355 353 351 350 344 326 280 239 217 207 204 200 195 195 196 195 196 193 190 189 193
327 329 327 327 330 330 331 331 331 333 336 340 343 344 347 347 355 358 356 352 347 350 359 356 355 352 355 352 335 305 241 214 203 202 200 193 194 194 193 195 193 191 189 192
323 326 322 324 326 328 328 328 331 332 335 338 342 342 348 349 353 359 356 352 348 348 360 358 357 356 358 354 348 333 249 214 205 198 198 192 191 192 193 193 191 186 189 192
320 321 317 323 322 324 325 327 327 330 333 337 341 342 347 348 349 360 354 354 350 347 354 360 357 359 358 358 356 343 301 199 200 192 192 189 189 191 190 194 191 187 189 192
313 314 315 317 318 320 322 323 326 328 329 335 339 341 345 346 349 353 355 353 349 348 349 359 360 1 1 0 3 351 320 187 191 188 189 187 188 188 190 195 191 188 189 191
307 311 313 313 315 317 318 321 323 324 325 334 336 338 342 346 352 351 351 352 351 346 347 357 359 1 7 360 3 359 333 201 189 187 187 188 190 190 191 193 191 190 192 196
310 310 311 311 311 313 315 318 320 322 325 330 334 336 339 342 350 348 349 352 352 347 348 352 357 2 9 4 4 4 348 202 191 188 185 190 189 189 188 191 192 192 193 197
309 306 307 307 307 309 311 313 319 322 326 327 330 333 335 340 346 346 354 354 353 348 348 348 356 359 9 11 2 8 358 194 197 187 185 186 189 190 190 192 191 192 194 196
308 304 302 302 304 308 310 310 315 321 323 325 327 329 332 337 342 351 353 357 353 349 345 345 353 356 5 15 10 7 16 222 196 193 186 189 189 192 188 191 192 193 195 196
305 302 300 303 304 307 311 312 316 319 320 321 322 327 330 333 341 353 355 357 356 348 344 343 350 353 358 15 10 12 24 156 184 194 186 189 189 191 190 189 192 192 196 196
300 299 300 304 308 306 308 309 311 316 316 316 318 323 325 331 337 345 350 351 354 350 339 344 343 353 356 6 13 8 22 97 184 188 193 187 191 189 189 190 193 192 196 196
295 296 298 300 303 302 302 305 308 310 311 311 314 319 324 331 332 338 342 349 353 352 337 338 338 346 350 358 17 5 17 66 160 179 186 186 188 190 191 192 193 196 195 199
292 292 295 298 298 297 299 301 304 307 307 309 311 314 321 325 328 331 337 343 351 352 336 337 331 338 345 355 6 13 11 56 148 170 177 185 188 187 190 192 194 195 196 199
281 284 289 290 290 292 296 299 301 303 303 305 308 312 318 323 325 326 333 338 348 350 335 339 328 331 338 346 353 17 9 63 141 161 172 178 181 184 188 194 195 195 198 200
282 279 284 283 284 286 290 294 298 299 300 302 304 309 314 319 321 324 328 336 346 347 338 329 327 324 328 333 336 342 13 91 153 161 166 175 179 184 191 194 196 195 196 200
276 275 277 278 280 280 284 291 293 295 298 299 301 305 308 314 317 320 326 334 340 345 328 317 318 314 316 316 314 292 233 229 177 174 174 176 183 190 193 194 194 195 198 200
282 281 273 275 277 277 281 286 289 291 294 296 298 302 306 310 314 318 325 331 334 343 326 312 307 302 303 302 289 266 235 208 209 192 187 186 187 192 194 194 195 196 200 202
287 283 274 270 272 278 281 285 288 290 292 293 296 301 304 309 312 318 323 327 332 339 319 305 297 290 293 290 278 257 233 219 208 208 199 196 195 194 196 195 194 198 201 204
288 282 276 274 275 278 283 286 289 291 292 293 295 300 307 309 315 320 324 326 331 334 314 299 292 278 281 281 272 255 244 223 216 210 210 205 201 200 200 199 200 200 203 207
285 283 279 276 276 279 282 284 286 288 291 293 299 303 306 308 312 317 321 327 329 334 320 297 285 274 270 274 271 259 242 240 222 215 211 210 212 205 203 203 205 206 207 206
287 286 283 281 280 280 280 281 282 288 292 297 298 299 300 305 311 315 320 327 328 335 321 295 281 267 266 266 267 264 251 237 236 222 213 213 211 216 210 208 208 208 210 213
283 283 281 277 277 279 277 282 288 294 295 290 293 291 297 302 307 313 319 323 327 332 324 294 278 262 260 265 261 260 258 245 234 235 225 216 214 213 216 217 211 210 213 212
280 280 279 279 281 281 285 287 294 289 286 290 282 288 297 303 306 312 319 322 324 330 324 293 277 263 262 266 263 258 254 253 243 231 231 225 220 216 214 216 221 215 214 215